Location: Krakow
(50.0830°N, 19.9170°E)
Time: 10:39:46
(UTC+01:00)

Transit 2A - Pass Details

Date: 12 February 2023
Orbit: 591 x 964 km, 66.7° (Epoch: 21 March)

Event Time Altitude Azimuth Distance (km) Brightness Sun altitude
Rises 22:36:58 0° 323° (NW) 3,488 10.0 -50.2°
Enters shadow 22:39:00 - 324° (NW) 2,740 9.4 -50.3°
Reaches altitude 10° 22:39:24 10° 325° (NW) 2,590 - -50.4°
Maximum altitude 22:45:32 78° 51° (NE) 971 - -50.8°
Drops below altitude 10° 22:51:55 10° 139° (SE) 2,696 - -51.3°
Sets 22:54:30 0° 140° (SE) 3,639 - -51.5°
